Weather History for KCOF - May, 2013

Change the Weather History Date:

Wednesday, May 8, 2013

  Actual Average Record
Temperature  
Mean Temperature 72 °F -  
Max Temperature 82 °F 80 °F 91 °F (1998)
Min Temperature 63 °F 68 °F 61 °F (2007)
Cooling Degree Days 8    
Growing Degree Days 22 (Base 50)    
Moisture  
Dew Point 60 °F    
Average Humidity 66    
Maximum Humidity 87    
Minimum Humidity 39    
Precipitation  
Precipitation 0.00 in - - ()
Sea Level Pressure  
Sea Level Pressure 30.10 in    
Wind  
Wind Speed 9 mph (WSW)    
Max Wind Speed 14 mph    
Max Gust Speed -    
Visibility 10 miles    
Events      
Averages and records for this station are not official NWS values.
T = Trace of Precipitation, MM = Missing Value Source: NWS Daily Summary

Daily Weather History Graph

Daily Weather History Graph

Search for Another Location

Airport or City:

Trip Planner

Search our weather history database for the weather conditions in past years. The results will help you decide how hot, cold, wet, or windy it might be!

Date:

Astronomy

May. 08, 2013 Rise Set
Actual Time 6:36 AM EDT 8:01 PM EDT
Civil Twilight 6:11 AM EDT 8:26 PM EDT
Nautical Twilight 5:41 AM EDT 8:56 PM EDT
Astronomical Twilight 5:10 AM EDT 9:28 PM EDT
Moon 5:37 AM EDT (5/8) 7:02 PM EDT (5/8)
Length of Visible Light 14h 15m
Length of Day
13h 24m
Waning Crescent, 2% of the Moon is Illuminated
May 8
Waning Crescent
May 9
New
May 18
First Quarter
May 25
Full
May 31
Last Quarter

Hourly Weather History & Observations

Time (EDT) Temp. Heat Index Dew Point Humidity Pressure Visibility Wind Dir Wind Speed Gust Speed Precip Events Conditions
12:58 AM 69.3 °F - 59.0 °F 70% 30.06 in 10.0 mi NW 12.7 mph - N/A   Clear
1:58 AM 67.6 °F - 59.2 °F 74% 30.06 in 10.0 mi West 9.2 mph - N/A   Clear
2:58 AM 66.4 °F - 59.5 °F 79% 30.04 in 10.0 mi West 6.9 mph - N/A   Clear
3:58 AM 66.2 °F - 59.5 °F 79% 30.06 in 10.0 mi West 6.9 mph - N/A   Clear
4:58 AM 64.9 °F - 59.5 °F 83% 30.06 in 10.0 mi West 5.8 mph - N/A   Clear
5:58 AM 63.9 °F - 59.7 °F 86% 30.08 in 10.0 mi West 6.9 mph - N/A   Clear
6:58 AM 64.0 °F - 60.1 °F 87% 30.09 in 10.0 mi WSW 6.9 mph - N/A   Clear
7:58 AM 66.7 °F - 61.2 °F 82% 30.12 in 10.0 mi WSW 5.8 mph - N/A   Clear
8:58 AM 69.4 °F - 61.5 °F 76% 30.14 in 10.0 mi WSW 5.8 mph - N/A   Clear
9:58 AM 71.8 °F - 60.6 °F 68% 30.14 in 10.0 mi WNW 8.1 mph - N/A   Clear
10:58 AM 74.8 °F - 59.0 °F 58% 30.14 in 10.0 mi West 8.1 mph - N/A   Clear
11:58 AM 76.6 °F - 57.4 °F 51% 30.14 in 10.0 mi West 8.1 mph - N/A   Clear
12:58 PM 78.8 °F - 57.4 °F 48% 30.14 in 10.0 mi WSW 8.1 mph - N/A   Partly Cloudy
1:58 PM 81.0 °F 81.0 °F 57.0 °F 44% 30.12 in 10.0 mi West 9.2 mph - N/A   Partly Cloudy
2:58 PM 80.4 °F 80.6 °F 56.7 °F 44% 30.11 in 10.0 mi WSW 13.8 mph - N/A   Partly Cloudy
3:58 PM 81.9 °F 81.4 °F 55.9 °F 41% 30.09 in 10.0 mi West 8.1 mph - N/A   Clear
4:58 PM 82.6 °F 81.8 °F 55.2 °F 39% 30.08 in 10.0 mi West 10.4 mph - N/A   Partly Cloudy
5:58 PM 76.5 °F - 64.2 °F 66% 30.08 in 10.0 mi SE 12.7 mph - N/A   Partly Cloudy
6:58 PM 75.6 °F - 64.2 °F 68% 30.08 in 10.0 mi SSE 12.7 mph - N/A   Clear
7:58 PM 74.5 °F - 64.0 °F 70% 30.09 in 10.0 mi SSE 12.7 mph - N/A   Scattered Clouds
8:58 PM 73.8 °F - 64.4 °F 72% 30.11 in 10.0 mi SSE 11.5 mph - N/A   Clear
9:58 PM 74.1 °F - 64.6 °F 72% 30.12 in 10.0 mi South 6.9 mph - N/A   Mostly Cloudy
10:58 PM 74.5 °F - 59.7 °F 60% 30.14 in 10.0 mi WSW 6.9 mph - N/A   Partly Cloudy
11:58 PM 73.2 °F - 59.2 °F 61% 30.16 in 10.0 mi WNW 10.4 mph - N/A   Clear